owner,sensor,date,latitude,longitude,air_temperature,qcFlag 
COMPS,ioos:station:USF.COMPS:TAR:1,2010-10-01T00:00:00Z,28.1560,-82.7580,25.5,1111122 
COMPS,ioos:station:USF.COMPS:TAR:1,2010-10-01T00:06:00Z,28.1560,-82.7580,25.44,1111122 
COMPS,ioos:station:USF.COMPS:TAR:1,2010-10-01T00:12:00Z,28.1560,-82.7580,25.43,1111122 
COMPS,ioos:station:USF.COMPS:TAR:1,2010-10-01T00:18:00Z,28.1560,-82.7580,25.35,1111122 
COMPS,ioos:station:USF.COMPS:TAR:1,2010-10-01T00:24:00Z,28.1560,-82.7580,25.37,1111122 
COMPS,ioos:station:USF.COMPS:TAR:1,2010-10-01T00:30:00Z,28.1560,-82.7580,25.29,1111122 
COMPS,ioos:station:USF.COMPS:TAR:1,2010-10-01T00:36:00Z,28.1560,-82.7580,25.18,1111122 
COMPS,ioos:station:USF.COMPS:TAR:1,2010-10-01T00:42:00Z,28.1560,-82.7580,25.17,1111122 
COMPS,ioos:station:USF.COMPS:TAR:1,2010-10-01T00:48:00Z,28.1560,-82.7580,25.21,1111122 
COMPS,ioos:station:USF.COMPS:TAR:1,2010-10-01T00:54:00Z,28.1560,-82.7580,25.17,1111122 
COMPS,ioos:station:USF.COMPS:TAR:1,2010-10-01T01:00:00Z,28.1560,-82.7580,25.2,1111122 
COMPS,ioos:station:USF.COMPS:TAR:1,2010-10-01T01:06:00Z,28.1560,-82.7580,25.04,1111122 
COMPS,ioos:station:USF.COMPS:TAR:1,2010-10-01T01:12:00Z,28.1560,-82.7580,25.03,1111122 
COMPS,ioos:station:USF.COMPS:TAR:1,2010-10-01T01:18:00Z,28.1560,-82.7580,25.03,1111122 
COMPS,ioos:station:USF.COMPS:TAR:1,2010-10-01T01:24:00Z,28.1560,-82.7580,25.12,1111122 
COMPS,ioos:station:USF.COMPS:TAR:1,2010-10-01T01:30:00Z,28.1560,-82.7580,25.08,1111122 
COMPS,ioos:station:USF.COMPS:TAR:1,2010-10-01T01:36:00Z,28.1560,-82.7580,25.04,1111122 
COMPS,ioos:station:USF.COMPS:TAR:1,2010-10-01T01:42:00Z,28.1560,-82.7580,25.04,1111122 
COMPS,ioos:station:USF.COMPS:TAR:1,2010-10-01T01:48:00Z,28.1560,-82.7580,25.03,1111122 
COMPS,ioos:station:USF.COMPS:TAR:1,2010-10-01T01:54:00Z,28.1560,-82.7580,25.04,1111122 
COMPS,ioos:station:USF.COMPS:TAR:1,2010-10-01T02:00:00Z,28.1560,-82.7580,25.0,1111122 
COMPS,ioos:station:USF.COMPS:TAR:1,2010-10-01T02:06:00Z,28.1560,-82.7580,25.07,1111122 
COMPS,ioos:station:USF.COMPS:TAR:1,2010-10-01T02:12:00Z,28.1560,-82.7580,25.11,1111122 
COMPS,ioos:station:USF.COMPS:TAR:1,2010-10-01T02:18:00Z,28.1560,-82.7580,25.03,1111122 
COMPS,ioos:station:USF.COMPS:TAR:1,2010-10-01T02:24:00Z,28.1560,-82.7580,25.17,1111122 
COMPS,ioos:station:USF.COMPS:TAR:1,2010-10-01T02:30:00Z,28.1560,-82.7580,25.04,1111122 
COMPS,ioos:station:USF.COMPS:TAR:1,2010-10-01T02:36:00Z,28.1560,-82.7580,25.04,1111122 
COMPS,ioos:station:USF.COMPS:TAR:1,2010-10-01T02:42:00Z,28.1560,-82.7580,25.06,1111122 
COMPS,ioos:station:USF.COMPS:TAR:1,2010-10-01T02:48:00Z,28.1560,-82.7580,25.07,1111122 
COMPS,ioos:station:USF.COMPS:TAR:1,2010-10-01T02:54:00Z,28.1560,-82.7580,25.09,1111122 
COMPS,ioos:station:USF.COMPS:TAR:1,2010-10-01T03:00:00Z,28.1560,-82.7580,25.1,1111122 
COMPS,ioos:station:USF.COMPS:TAR:1,2010-10-01T03:06:00Z,28.1560,-82.7580,25.04,1111122 
COMPS,ioos:station:USF.COMPS:TAR:1,2010-10-01T03:12:00Z,28.1560,-82.7580,24.94,1111122 
COMPS,ioos:station:USF.COMPS:TAR:1,2010-10-01T03:18:00Z,28.1560,-82.7580,24.9,1111122 
COMPS,ioos:station:USF.COMPS:TAR:1,2010-10-01T03:24:00Z,28.1560,-82.7580,24.94,1111122 
COMPS,ioos:station:USF.COMPS:TAR:1,2010-10-01T03:30:00Z,28.1560,-82.7580,24.9,1111122 
COMPS,ioos:station:USF.COMPS:TAR:1,2010-10-01T03:36:00Z,28.1560,-82.7580,24.9,1111122 
COMPS,ioos:station:USF.COMPS:TAR:1,2010-10-01T03:42:00Z,28.1560,-82.7580,24.9,1111122 
COMPS,ioos:station:USF.COMPS:TAR:1,2010-10-01T03:48:00Z,28.1560,-82.7580,24.91,1111122 
COMPS,ioos:station:USF.COMPS:TAR:1,2010-10-01T03:54:00Z,28.1560,-82.7580,24.86,1111122 
COMPS,ioos:station:USF.COMPS:TAR:1,2010-10-01T04:00:00Z,28.1560,-82.7580,24.9,1111122 
COMPS,ioos:station:USF.COMPS:TAR:1,2010-10-01T04:06:00Z,28.1560,-82.7580,24.83,1111122 
COMPS,ioos:station:USF.COMPS:TAR:1,2010-10-01T04:12:00Z,28.1560,-82.7580,24.78,1111122 
COMPS,ioos:station:USF.COMPS:TAR:1,2010-10-01T04:18:00Z,28.1560,-82.7580,24.77,1111122 
COMPS,ioos:station:USF.COMPS:TAR:1,2010-10-01T04:24:00Z,28.1560,-82.7580,24.81,1111122 
COMPS,ioos:station:USF.COMPS:TAR:1,2010-10-01T04:30:00Z,28.1560,-82.7580,24.77,1111122 
COMPS,ioos:station:USF.COMPS:TAR:1,2010-10-01T04:36:00Z,28.1560,-82.7580,24.77,1111122 
COMPS,ioos:station:USF.COMPS:TAR:1,2010-10-01T04:42:00Z,28.1560,-82.7580,24.77,1111122 
COMPS,ioos:station:USF.COMPS:TAR:1,2010-10-01T04:48:00Z,28.1560,-82.7580,24.85,1111122 
COMPS,ioos:station:USF.COMPS:TAR:1,2010-10-01T04:54:00Z,28.1560,-82.7580,24.9,1111122 
COMPS,ioos:station:USF.COMPS:TAR:1,2010-10-01T05:00:00Z,28.1560,-82.7580,24.9,1111122 
COMPS,ioos:station:USF.COMPS:TAR:1,2010-10-01T05:06:00Z,28.1560,-82.7580,24.95,1111122 
COMPS,ioos:station:USF.COMPS:TAR:1,2010-10-01T05:12:00Z,28.1560,-82.7580,25.07,1111122 
COMPS,ioos:station:USF.COMPS:TAR:1,2010-10-01T05:18:00Z,28.1560,-82.7580,25.14,1111122 
COMPS,ioos:station:USF.COMPS:TAR:1,2010-10-01T05:24:00Z,28.1560,-82.7580,25.25,1111122 
COMPS,ioos:station:USF.COMPS:TAR:1,2010-10-01T05:30:00Z,28.1560,-82.7580,25.17,1111122 
COMPS,ioos:station:USF.COMPS:TAR:1,2010-10-01T05:36:00Z,28.1560,-82.7580,25.18,1111122 
COMPS,ioos:station:USF.COMPS:TAR:1,2010-10-01T05:42:00Z,28.1560,-82.7580,25.2,1111122 
COMPS,ioos:station:USF.COMPS:TAR:1,2010-10-01T05:48:00Z,28.1560,-82.7580,25.22,1111122 
COMPS,ioos:station:USF.COMPS:TAR:1,2010-10-01T05:54:00Z,28.1560,-82.7580,25.17,1111122 
COMPS,ioos:station:USF.COMPS:TAR:1,2010-10-01T06:00:00Z,28.1560,-82.7580,25.2,1111122 
COMPS,ioos:station:USF.COMPS:TAR:1,2010-10-01T06:06:00Z,28.1560,-82.7580,25.3,1111122 
COMPS,ioos:station:USF.COMPS:TAR:1,2010-10-01T06:12:00Z,28.1560,-82.7580,25.31,1111122 
COMPS,ioos:station:USF.COMPS:TAR:1,2010-10-01T06:18:00Z,28.1560,-82.7580,25.3,1111122 
COMPS,ioos:station:USF.COMPS:TAR:1,2010-10-01T06:24:00Z,28.1560,-82.7580,25.36,1111122 
COMPS,ioos:station:USF.COMPS:TAR:1,2010-10-01T06:30:00Z,28.1560,-82.7580,25.31,1111122 
COMPS,ioos:station:USF.COMPS:TAR:1,2010-10-01T06:36:00Z,28.1560,-82.7580,25.31,1111122 
COMPS,ioos:station:USF.COMPS:TAR:1,2010-10-01T06:42:00Z,28.1560,-82.7580,25.3,1111122 
COMPS,ioos:station:USF.COMPS:TAR:1,2010-10-01T06:48:00Z,28.1560,-82.7580,25.3,1111122 
COMPS,ioos:station:USF.COMPS:TAR:1,2010-10-01T06:54:00Z,28.1560,-82.7580,25.3,1111122 
COMPS,ioos:station:USF.COMPS:TAR:1,2010-10-01T07:00:00Z,28.1560,-82.7580,25.3,1111122 
COMPS,ioos:station:USF.COMPS:TAR:1,2010-10-01T07:06:00Z,28.1560,-82.7580,25.44,1111122 
COMPS,ioos:station:USF.COMPS:TAR:1,2010-10-01T07:12:00Z,28.1560,-82.7580,25.51,1111122 
COMPS,ioos:station:USF.COMPS:TAR:1,2010-10-01T07:18:00Z,28.1560,-82.7580,25.58,1111122 
COMPS,ioos:station:USF.COMPS:TAR:1,2010-10-01T07:24:00Z,28.1560,-82.7580,25.77,1111122 
COMPS,ioos:station:USF.COMPS:TAR:1,2010-10-01T07:30:00Z,28.1560,-82.7580,25.74,1111122 
COMPS,ioos:station:USF.COMPS:TAR:1,2010-10-01T07:36:00Z,28.1560,-82.7580,25.85,1111122 
COMPS,ioos:station:USF.COMPS:TAR:1,2010-10-01T07:42:00Z,28.1560,-82.7580,25.75,1111122 
COMPS,ioos:station:USF.COMPS:TAR:1,2010-10-01T07:48:00Z,28.1560,-82.7580,25.5,1111122 
COMPS,ioos:station:USF.COMPS:TAR:1,2010-10-01T07:54:00Z,28.1560,-82.7580,25.29,1111122 
COMPS,ioos:station:USF.COMPS:TAR:1,2010-10-01T08:00:00Z,28.1560,-82.7580,25.3,1111122 
COMPS,ioos:station:USF.COMPS:TAR:1,2010-10-01T09:00:00Z,28.1560,-82.7580,25.6,1111122 
COMPS,ioos:station:USF.COMPS:TAR:1,2010-10-01T09:06:00Z,28.1560,-82.7580,25.56,1111122 
COMPS,ioos:station:USF.COMPS:TAR:1,2010-10-01T09:12:00Z,28.1560,-82.7580,25.52,1111122 
COMPS,ioos:station:USF.COMPS:TAR:1,2010-10-01T09:18:00Z,28.1560,-82.7580,25.43,1111122 
COMPS,ioos:station:USF.COMPS:TAR:1,2010-10-01T09:24:00Z,28.1560,-82.7580,25.35,1111122 
COMPS,ioos:station:USF.COMPS:TAR:1,2010-10-01T09:30:00Z,28.1560,-82.7580,25.16,1111122 
COMPS,ioos:station:USF.COMPS:TAR:1,2010-10-01T09:36:00Z,28.1560,-82.7580,25.04,1111122 
COMPS,ioos:station:USF.COMPS:TAR:1,2010-10-01T09:42:00Z,28.1560,-82.7580,24.89,1111122 
COMPS,ioos:station:USF.COMPS:TAR:1,2010-10-01T09:48:00Z,28.1560,-82.7580,24.73,1111122 
COMPS,ioos:station:USF.COMPS:TAR:1,2010-10-01T09:54:00Z,28.1560,-82.7580,24.59,1111122 
COMPS,ioos:station:USF.COMPS:TAR:1,2010-10-01T10:00:00Z,28.1560,-82.7580,24.6,1111122 
COMPS,ioos:station:USF.COMPS:TAR:1,2010-10-01T10:06:00Z,28.1560,-82.7580,24.51,1111122 
COMPS,ioos:station:USF.COMPS:TAR:1,2010-10-01T10:12:00Z,28.1560,-82.7580,24.37,1111122 
COMPS,ioos:station:USF.COMPS:TAR:1,2010-10-01T10:18:00Z,28.1560,-82.7580,24.32,1111122 
COMPS,ioos:station:USF.COMPS:TAR:1,2010-10-01T10:24:00Z,28.1560,-82.7580,24.29,1111122 
COMPS,ioos:station:USF.COMPS:TAR:1,2010-10-01T10:30:00Z,28.1560,-82.7580,24.11,1111122 
COMPS,ioos:station:USF.COMPS:TAR:1,2010-10-01T10:36:00Z,28.1560,-82.7580,23.92,1111122 
COMPS,ioos:station:USF.COMPS:TAR:1,2010-10-01T10:42:00Z,28.1560,-82.7580,23.76,1111122 
COMPS,ioos:station:USF.COMPS:TAR:1,2010-10-01T10:48:00Z,28.1560,-82.7580,23.59,1111122 
COMPS,ioos:station:USF.COMPS:TAR:1,2010-10-01T10:54:00Z,28.1560,-82.7580,23.43,1111122 
COMPS,ioos:station:USF.COMPS:TAR:1,2010-10-01T11:00:00Z,28.1560,-82.7580,23.4,1111122 
COMPS,ioos:station:USF.COMPS:TAR:1,2010-10-01T11:06:00Z,28.1560,-82.7580,23.3,1111122 
COMPS,ioos:station:USF.COMPS:TAR:1,2010-10-01T11:12:00Z,28.1560,-82.7580,23.18,1111122 
COMPS,ioos:station:USF.COMPS:TAR:1,2010-10-01T11:18:00Z,28.1560,-82.7580,23.11,1111122 
COMPS,ioos:station:USF.COMPS:TAR:1,2010-10-01T11:24:00Z,28.1560,-82.7580,23.06,1111122 
COMPS,ioos:station:USF.COMPS:TAR:1,2010-10-01T11:30:00Z,28.1560,-82.7580,22.9,1111122 
COMPS,ioos:station:USF.COMPS:TAR:1,2010-10-01T11:36:00Z,28.1560,-82.7580,22.76,1111122 
COMPS,ioos:station:USF.COMPS:TAR:1,2010-10-01T11:42:00Z,28.1560,-82.7580,22.82,1111122 
COMPS,ioos:station:USF.COMPS:TAR:1,2010-10-01T11:48:00Z,28.1560,-82.7580,23.07,1111122 
COMPS,ioos:station:USF.COMPS:TAR:1,2010-10-01T11:54:00Z,28.1560,-82.7580,23.21,1111122 
COMPS,ioos:station:USF.COMPS:TAR:1,2010-10-01T12:00:00Z,28.1560,-82.7580,23.2,1111122 
COMPS,ioos:station:USF.COMPS:TAR:1,2010-10-01T12:06:00Z,28.1560,-82.7580,23.3,1111122 
COMPS,ioos:station:USF.COMPS:TAR:1,2010-10-01T12:12:00Z,28.1560,-82.7580,23.58,1111122 
COMPS,ioos:station:USF.COMPS:TAR:1,2010-10-01T12:18:00Z,28.1560,-82.7580,23.95,1111122 
COMPS,ioos:station:USF.COMPS:TAR:1,2010-10-01T12:24:00Z,28.1560,-82.7580,24.46,1111122 
COMPS,ioos:station:USF.COMPS:TAR:1,2010-10-01T12:30:00Z,28.1560,-82.7580,25.1,1111122 
COMPS,ioos:station:USF.COMPS:TAR:1,2010-10-01T12:36:00Z,28.1560,-82.7580,25.31,1111122 
COMPS,ioos:station:USF.COMPS:TAR:1,2010-10-01T12:42:00Z,28.1560,-82.7580,25.62,1111122 
COMPS,ioos:station:USF.COMPS:TAR:1,2010-10-01T12:48:00Z,28.1560,-82.7580,25.77,1111122 
COMPS,ioos:station:USF.COMPS:TAR:1,2010-10-01T12:54:00Z,28.1560,-82.7580,25.71,1111122 
COMPS,ioos:station:USF.COMPS:TAR:1,2010-10-01T13:00:00Z,28.1560,-82.7580,25.7,1111122 
COMPS,ioos:station:USF.COMPS:TAR:1,2010-10-01T13:06:00Z,28.1560,-82.7580,26.59,1111122 
COMPS,ioos:station:USF.COMPS:TAR:1,2010-10-01T13:12:00Z,28.1560,-82.7580,26.11,1111122 
COMPS,ioos:station:USF.COMPS:TAR:1,2010-10-01T13:18:00Z,28.1560,-82.7580,26.8,1111122 
COMPS,ioos:station:USF.COMPS:TAR:1,2010-10-01T13:24:00Z,28.1560,-82.7580,27.39,1111122 
COMPS,ioos:station:USF.COMPS:TAR:1,2010-10-01T13:30:00Z,28.1560,-82.7580,26.91,1111122 
COMPS,ioos:station:USF.COMPS:TAR:1,2010-10-01T13:36:00Z,28.1560,-82.7580,26.9,1111122 
COMPS,ioos:station:USF.COMPS:TAR:1,2010-10-01T13:42:00Z,28.1560,-82.7580,27.29,1111122 
COMPS,ioos:station:USF.COMPS:TAR:1,2010-10-01T13:48:00Z,28.1560,-82.7580,28.43,1111122 
COMPS,ioos:station:USF.COMPS:TAR:1,2010-10-01T13:54:00Z,28.1560,-82.7580,28.6,1111122 
COMPS,ioos:station:USF.COMPS:TAR:1,2010-10-01T14:00:00Z,28.1560,-82.7580,28.6,1111122 
COMPS,ioos:station:USF.COMPS:TAR:1,2010-10-01T14:06:00Z,28.1560,-82.7580,28.58,1111122 
COMPS,ioos:station:USF.COMPS:TAR:1,2010-10-01T14:12:00Z,28.1560,-82.7580,28.73,1111122 
COMPS,ioos:station:USF.COMPS:TAR:1,2010-10-01T14:18:00Z,28.1560,-82.7580,28.76,1111122 
COMPS,ioos:station:USF.COMPS:TAR:1,2010-10-01T14:24:00Z,28.1560,-82.7580,28.17,1111122 
COMPS,ioos:station:USF.COMPS:TAR:1,2010-10-01T14:30:00Z,28.1560,-82.7580,28.89,1111122 
COMPS,ioos:station:USF.COMPS:TAR:1,2010-10-01T14:36:00Z,28.1560,-82.7580,29.61,1111122 
COMPS,ioos:station:USF.COMPS:TAR:1,2010-10-01T14:42:00Z,28.1560,-82.7580,30.22,1111122 
COMPS,ioos:station:USF.COMPS:TAR:1,2010-10-01T14:48:00Z,28.1560,-82.7580,30.82,1111122 
COMPS,ioos:station:USF.COMPS:TAR:1,2010-10-01T14:54:00Z,28.1560,-82.7580,29.54,1111122 
COMPS,ioos:station:USF.COMPS:TAR:1,2010-10-01T15:00:00Z,28.1560,-82.7580,29.5,1111122 
COMPS,ioos:station:USF.COMPS:TAR:1,2010-10-01T15:06:00Z,28.1560,-82.7580,29.44,1111122 
COMPS,ioos:station:USF.COMPS:TAR:1,2010-10-01T15:12:00Z,28.1560,-82.7580,30.13,1111122 
COMPS,ioos:station:USF.COMPS:TAR:1,2010-10-01T15:18:00Z,28.1560,-82.7580,30.19,1111122 
COMPS,ioos:station:USF.COMPS:TAR:1,2010-10-01T15:24:00Z,28.1560,-82.7580,30.39,1111122 
COMPS,ioos:station:USF.COMPS:TAR:1,2010-10-01T15:30:00Z,28.1560,-82.7580,30.67,1111122 
COMPS,ioos:station:USF.COMPS:TAR:1,2010-10-01T15:36:00Z,28.1560,-82.7580,30.14,1111122 
COMPS,ioos:station:USF.COMPS:TAR:1,2010-10-01T15:42:00Z,28.1560,-82.7580,29.83,1111122 
COMPS,ioos:station:USF.COMPS:TAR:1,2010-10-01T15:48:00Z,28.1560,-82.7580,30.02,1111122 
COMPS,ioos:station:USF.COMPS:TAR:1,2010-10-01T15:54:00Z,28.1560,-82.7580,30.52,1111122 
COMPS,ioos:station:USF.COMPS:TAR:1,2010-10-01T16:00:00Z,28.1560,-82.7580,30.5,1111122 
COMPS,ioos:station:USF.COMPS:TAR:1,2010-10-01T16:06:00Z,28.1560,-82.7580,30.81,1111122 
COMPS,ioos:station:USF.COMPS:TAR:1,2010-10-01T16:12:00Z,28.1560,-82.7580,31.19,1111122 
COMPS,ioos:station:USF.COMPS:TAR:1,2010-10-01T16:18:00Z,28.1560,-82.7580,31.46,1111122 
COMPS,ioos:station:USF.COMPS:TAR:1,2010-10-01T16:24:00Z,28.1560,-82.7580,31.78,1111122 
COMPS,ioos:station:USF.COMPS:TAR:1,2010-10-01T16:30:00Z,28.1560,-82.7580,31.62,1111122 
COMPS,ioos:station:USF.COMPS:TAR:1,2010-10-01T16:36:00Z,28.1560,-82.7580,31.57,1111122 
COMPS,ioos:station:USF.COMPS:TAR:1,2010-10-01T16:42:00Z,28.1560,-82.7580,30.69,1111122 
COMPS,ioos:station:USF.COMPS:TAR:1,2010-10-01T16:48:00Z,28.1560,-82.7580,30.75,1111122 
COMPS,ioos:station:USF.COMPS:TAR:1,2010-10-01T16:54:00Z,28.1560,-82.7580,30.81,1111122 
COMPS,ioos:station:USF.COMPS:TAR:1,2010-10-01T17:00:00Z,28.1560,-82.7580,30.8,1111122 
COMPS,ioos:station:USF.COMPS:TAR:1,2010-10-01T17:06:00Z,28.1560,-82.7580,30.65,1111122 
COMPS,ioos:station:USF.COMPS:TAR:1,2010-10-01T17:12:00Z,28.1560,-82.7580,30.86,1111122 
COMPS,ioos:station:USF.COMPS:TAR:1,2010-10-01T17:18:00Z,28.1560,-82.7580,30.42,1111122 
COMPS,ioos:station:USF.COMPS:TAR:1,2010-10-01T17:24:00Z,28.1560,-82.7580,30.77,1111122 
COMPS,ioos:station:USF.COMPS:TAR:1,2010-10-01T17:30:00Z,28.1560,-82.7580,30.58,1111122 
COMPS,ioos:station:USF.COMPS:TAR:1,2010-10-01T17:36:00Z,28.1560,-82.7580,30.36,1111122 
COMPS,ioos:station:USF.COMPS:TAR:1,2010-10-01T17:42:00Z,28.1560,-82.7580,30.56,1111122 
COMPS,ioos:station:USF.COMPS:TAR:1,2010-10-01T17:48:00Z,28.1560,-82.7580,30.14,1111122 
COMPS,ioos:station:USF.COMPS:TAR:1,2010-10-01T17:54:00Z,28.1560,-82.7580,29.89,1111122 
COMPS,ioos:station:USF.COMPS:TAR:1,2010-10-01T18:00:00Z,28.1560,-82.7580,29.9,1111122 
COMPS,ioos:station:USF.COMPS:TAR:1,2010-10-01T18:06:00Z,28.1560,-82.7580,29.04,1111122 
COMPS,ioos:station:USF.COMPS:TAR:1,2010-10-01T18:12:00Z,28.1560,-82.7580,28.88,1111122 
COMPS,ioos:station:USF.COMPS:TAR:1,2010-10-01T18:18:00Z,28.1560,-82.7580,29.52,1111122 
COMPS,ioos:station:USF.COMPS:TAR:1,2010-10-01T18:24:00Z,28.1560,-82.7580,29.88,1111122 
COMPS,ioos:station:USF.COMPS:TAR:1,2010-10-01T18:30:00Z,28.1560,-82.7580,29.23,1111122 
COMPS,ioos:station:USF.COMPS:TAR:1,2010-10-01T18:36:00Z,28.1560,-82.7580,28.79,1111122 
COMPS,ioos:station:USF.COMPS:TAR:1,2010-10-01T18:42:00Z,28.1560,-82.7580,28.77,1111122 
COMPS,ioos:station:USF.COMPS:TAR:1,2010-10-01T18:48:00Z,28.1560,-82.7580,29.08,1111122 
COMPS,ioos:station:USF.COMPS:TAR:1,2010-10-01T18:54:00Z,28.1560,-82.7580,29.14,1111122 
COMPS,ioos:station:USF.COMPS:TAR:1,2010-10-01T19:00:00Z,28.1560,-82.7580,29.1,1111122 
COMPS,ioos:station:USF.COMPS:TAR:1,2010-10-01T19:06:00Z,28.1560,-82.7580,28.53,1111122 
COMPS,ioos:station:USF.COMPS:TAR:1,2010-10-01T19:12:00Z,28.1560,-82.7580,28.63,1111122 
COMPS,ioos:station:USF.COMPS:TAR:1,2010-10-01T19:18:00Z,28.1560,-82.7580,28.56,1111122 
COMPS,ioos:station:USF.COMPS:TAR:1,2010-10-01T19:24:00Z,28.1560,-82.7580,28.79,1111122 
COMPS,ioos:station:USF.COMPS:TAR:1,2010-10-01T19:30:00Z,28.1560,-82.7580,28.91,1111122 
COMPS,ioos:station:USF.COMPS:TAR:1,2010-10-01T19:36:00Z,28.1560,-82.7580,28.78,1111122 
COMPS,ioos:station:USF.COMPS:TAR:1,2010-10-01T19:42:00Z,28.1560,-82.7580,28.78,1111122 
COMPS,ioos:station:USF.COMPS:TAR:1,2010-10-01T19:48:00Z,28.1560,-82.7580,29.11,1111122 
COMPS,ioos:station:USF.COMPS:TAR:1,2010-10-01T19:54:00Z,28.1560,-82.7580,29.08,1111122 
COMPS,ioos:station:USF.COMPS:TAR:1,2010-10-01T20:00:00Z,28.1560,-82.7580,29.1,1111122 
COMPS,ioos:station:USF.COMPS:TAR:1,2010-10-01T20:06:00Z,28.1560,-82.7580,28.89,1111122 
COMPS,ioos:station:USF.COMPS:TAR:1,2010-10-01T20:12:00Z,28.1560,-82.7580,28.43,1111122 
COMPS,ioos:station:USF.COMPS:TAR:1,2010-10-01T20:18:00Z,28.1560,-82.7580,28.7,1111122 
COMPS,ioos:station:USF.COMPS:TAR:1,2010-10-01T20:24:00Z,28.1560,-82.7580,28.46,1111122 
COMPS,ioos:station:USF.COMPS:TAR:1,2010-10-01T20:30:00Z,28.1560,-82.7580,28.2,1111122 
COMPS,ioos:station:USF.COMPS:TAR:1,2010-10-01T20:36:00Z,28.1560,-82.7580,28.25,1111122 
COMPS,ioos:station:USF.COMPS:TAR:1,2010-10-01T20:42:00Z,28.1560,-82.7580,28.31,1111122 
COMPS,ioos:station:USF.COMPS:TAR:1,2010-10-01T20:48:00Z,28.1560,-82.7580,28.07,1111122 
COMPS,ioos:station:USF.COMPS:TAR:1,2010-10-01T20:54:00Z,28.1560,-82.7580,28.11,1111122 
COMPS,ioos:station:USF.COMPS:TAR:1,2010-10-01T21:00:00Z,28.1560,-82.7580,28.1,1111122 
COMPS,ioos:station:USF.COMPS:TAR:1,2010-10-01T21:06:00Z,28.1560,-82.7580,28.61,1111122 
COMPS,ioos:station:USF.COMPS:TAR:1,2010-10-01T21:12:00Z,28.1560,-82.7580,28.5,1111122 
COMPS,ioos:station:USF.COMPS:TAR:1,2010-10-01T21:18:00Z,28.1560,-82.7580,28.23,1111122 
COMPS,ioos:station:USF.COMPS:TAR:1,2010-10-01T21:24:00Z,28.1560,-82.7580,28.29,1111122 
COMPS,ioos:station:USF.COMPS:TAR:1,2010-10-01T21:30:00Z,28.1560,-82.7580,28.07,1111122 
COMPS,ioos:station:USF.COMPS:TAR:1,2010-10-01T21:36:00Z,28.1560,-82.7580,27.82,1111122 
COMPS,ioos:station:USF.COMPS:TAR:1,2010-10-01T21:42:00Z,28.1560,-82.7580,27.76,1111122 
COMPS,ioos:station:USF.COMPS:TAR:1,2010-10-01T21:48:00Z,28.1560,-82.7580,27.78,1111122 
COMPS,ioos:station:USF.COMPS:TAR:1,2010-10-01T21:54:00Z,28.1560,-82.7580,27.31,1111122 
COMPS,ioos:station:USF.COMPS:TAR:1,2010-10-01T22:00:00Z,28.1560,-82.7580,27.3,1111122 
COMPS,ioos:station:USF.COMPS:TAR:1,2010-10-01T22:06:00Z,28.1560,-82.7580,27.2,1111122 
COMPS,ioos:station:USF.COMPS:TAR:1,2010-10-01T22:12:00Z,28.1560,-82.7580,26.97,1111122 
COMPS,ioos:station:USF.COMPS:TAR:1,2010-10-01T22:18:00Z,28.1560,-82.7580,26.88,1111122 
COMPS,ioos:station:USF.COMPS:TAR:1,2010-10-01T22:24:00Z,28.1560,-82.7580,26.78,1111122 
COMPS,ioos:station:USF.COMPS:TAR:1,2010-10-01T22:30:00Z,28.1560,-82.7580,26.63,1111122 
COMPS,ioos:station:USF.COMPS:TAR:1,2010-10-01T22:36:00Z,28.1560,-82.7580,26.48,1111122 
COMPS,ioos:station:USF.COMPS:TAR:1,2010-10-01T22:42:00Z,28.1560,-82.7580,26.38,1111122 
COMPS,ioos:station:USF.COMPS:TAR:1,2010-10-01T22:48:00Z,28.1560,-82.7580,26.26,1111122 
COMPS,ioos:station:USF.COMPS:TAR:1,2010-10-01T22:54:00Z,28.1560,-82.7580,26.1,1111122 
COMPS,ioos:station:USF.COMPS:TAR:1,2010-10-01T23:00:00Z,28.1560,-82.7580,26.1,1111122 
COMPS,ioos:station:USF.COMPS:TAR:1,2010-10-01T23:06:00Z,28.1560,-82.7580,25.88,1111122 
COMPS,ioos:station:USF.COMPS:TAR:1,2010-10-01T23:12:00Z,28.1560,-82.7580,25.73,1111122 
COMPS,ioos:station:USF.COMPS:TAR:1,2010-10-01T23:18:00Z,28.1560,-82.7580,25.56,1111122 
COMPS,ioos:station:USF.COMPS:TAR:1,2010-10-01T23:24:00Z,28.1560,-82.7580,25.42,1111122 
COMPS,ioos:station:USF.COMPS:TAR:1,2010-10-01T23:30:00Z,28.1560,-82.7580,25.24,1111122 
COMPS,ioos:station:USF.COMPS:TAR:1,2010-10-01T23:36:00Z,28.1560,-82.7580,25.1,1111122 
COMPS,ioos:station:USF.COMPS:TAR:1,2010-10-01T23:42:00Z,28.1560,-82.7580,24.97,1111122 
COMPS,ioos:station:USF.COMPS:TAR:1,2010-10-01T23:48:00Z,28.1560,-82.7580,24.86,1111122 
COMPS,ioos:station:USF.COMPS:TAR:1,2010-10-01T23:54:00Z,28.1560,-82.7580,24.75,1111122 
COMPS,ioos:station:USF.COMPS:TAR:1,2010-10-02T00:00:00Z,28.1560,-82.7580,24.8,1111122 
COMPS,ioos:station:USF.COMPS:TAR:1,2010-10-02T00:06:00Z,28.1560,-82.7580,24.5,1111122 
COMPS,ioos:station:USF.COMPS:TAR:1,2010-10-02T00:12:00Z,28.1560,-82.7580,24.38,1111122 
COMPS,ioos:station:USF.COMPS:TAR:1,2010-10-02T00:18:00Z,28.1560,-82.7580,24.35,1111122 
COMPS,ioos:station:USF.COMPS:TAR:1,2010-10-02T00:24:00Z,28.1560,-82.7580,24.31,1111122 
COMPS,ioos:station:USF.COMPS:TAR:1,2010-10-02T00:30:00Z,28.1560,-82.7580,24.12,1111122 
COMPS,ioos:station:USF.COMPS:TAR:1,2010-10-02T00:36:00Z,28.1560,-82.7580,23.94,1111122 
COMPS,ioos:station:USF.COMPS:TAR:1,2010-10-02T00:42:00Z,28.1560,-82.7580,23.83,1111122 
COMPS,ioos:station:USF.COMPS:TAR:1,2010-10-02T00:48:00Z,28.1560,-82.7580,23.74,1111122 
COMPS,ioos:station:USF.COMPS:TAR:1,2010-10-02T00:54:00Z,28.1560,-82.7580,23.79,1111122 
COMPS,ioos:station:USF.COMPS:TAR:1,2010-10-02T01:00:00Z,28.1560,-82.7580,23.8,1111122 
COMPS,ioos:station:USF.COMPS:TAR:1,2010-10-02T01:06:00Z,28.1560,-82.7580,23.7,1111122 
COMPS,ioos:station:USF.COMPS:TAR:1,2010-10-02T01:12:00Z,28.1560,-82.7580,23.6,1111122 
COMPS,ioos:station:USF.COMPS:TAR:1,2010-10-02T01:18:00Z,28.1560,-82.7580,23.51,1111122 
COMPS,ioos:station:USF.COMPS:TAR:1,2010-10-02T01:24:00Z,28.1560,-82.7580,23.6,1111122 
COMPS,ioos:station:USF.COMPS:TAR:1,2010-10-02T01:30:00Z,28.1560,-82.7580,23.57,1111122 
COMPS,ioos:station:USF.COMPS:TAR:1,2010-10-02T01:36:00Z,28.1560,-82.7580,23.44,1111122 
COMPS,ioos:station:USF.COMPS:TAR:1,2010-10-02T01:42:00Z,28.1560,-82.7580,23.44,1111122 
COMPS,ioos:station:USF.COMPS:TAR:1,2010-10-02T01:48:00Z,28.1560,-82.7580,23.31,1111122 
COMPS,ioos:station:USF.COMPS:TAR:1,2010-10-02T01:54:00Z,28.1560,-82.7580,23.3,1111122 
COMPS,ioos:station:USF.COMPS:TAR:1,2010-10-02T02:00:00Z,28.1560,-82.7580,23.3,1111122 
COMPS,ioos:station:USF.COMPS:TAR:1,2010-10-02T02:06:00Z,28.1560,-82.7580,23.68,1111122 
COMPS,ioos:station:USF.COMPS:TAR:1,2010-10-02T02:12:00Z,28.1560,-82.7580,23.57,1111122 
COMPS,ioos:station:USF.COMPS:TAR:1,2010-10-02T02:18:00Z,28.1560,-82.7580,23.19,1111122 
COMPS,ioos:station:USF.COMPS:TAR:1,2010-10-02T02:24:00Z,28.1560,-82.7580,23.11,1111122 
COMPS,ioos:station:USF.COMPS:TAR:1,2010-10-02T02:30:00Z,28.1560,-82.7580,23.15,1111122 
COMPS,ioos:station:USF.COMPS:TAR:1,2010-10-02T02:36:00Z,28.1560,-82.7580,23.29,1111122 
COMPS,ioos:station:USF.COMPS:TAR:1,2010-10-02T02:42:00Z,28.1560,-82.7580,23.25,1111122 
COMPS,ioos:station:USF.COMPS:TAR:1,2010-10-02T02:48:00Z,28.1560,-82.7580,23.11,1111122 
COMPS,ioos:station:USF.COMPS:TAR:1,2010-10-02T02:54:00Z,28.1560,-82.7580,23.03,1111122 
COMPS,ioos:station:USF.COMPS:TAR:1,2010-10-02T03:00:00Z,28.1560,-82.7580,23.0,1111122 
COMPS,ioos:station:USF.COMPS:TAR:1,2010-10-02T03:06:00Z,28.1560,-82.7580,22.76,1111122 
COMPS,ioos:station:USF.COMPS:TAR:1,2010-10-02T03:12:00Z,28.1560,-82.7580,22.92,1111122 
COMPS,ioos:station:USF.COMPS:TAR:1,2010-10-02T03:18:00Z,28.1560,-82.7580,23.02,1111122 
COMPS,ioos:station:USF.COMPS:TAR:1,2010-10-02T03:24:00Z,28.1560,-82.7580,22.98,1111122 
COMPS,ioos:station:USF.COMPS:TAR:1,2010-10-02T03:30:00Z,28.1560,-82.7580,22.87,1111122 
COMPS,ioos:station:USF.COMPS:TAR:1,2010-10-02T03:36:00Z,28.1560,-82.7580,22.89,1111122 
COMPS,ioos:station:USF.COMPS:TAR:1,2010-10-02T03:42:00Z,28.1560,-82.7580,22.83,1111122 
COMPS,ioos:station:USF.COMPS:TAR:1,2010-10-02T03:48:00Z,28.1560,-82.7580,22.77,1111122 
COMPS,ioos:station:USF.COMPS:TAR:1,2010-10-02T03:54:00Z,28.1560,-82.7580,22.9,1111122 
COMPS,ioos:station:USF.COMPS:TAR:1,2010-10-02T04:00:00Z,28.1560,-82.7580,22.9,1111122 